Terminal Aerodrome Forecast
Issued by NWS

Home | Current Version | Previous Version | Text Only | Print | Product List | Glossary On
Versions: 1 2 3 4 5 6 7 8 9 10 11 12 13 14 15 16
000
FTUS43 KDVN 140500
TAFCID
TAF
KCID 140520Z 1406/1506 16003KT P6SM SCT200
     FM141600 22008KT P6SM SCT050
     FM150000 18003KT P6SM BKN150=

USA.gov is the U.S. government's official web portal to all federal, state and local government web resources and services.